Epoch 2011 Oct. 6.0 TT = JDT 2455840.5 T 2011 Sept. 16.41339 TT MPC q 2.1551405 (2000.0) P Q z -0.0004833 Peri. 354.55080 -0.92536395 +0.35209590 +/-0.0000008 Node 152.59135 +0.35830762 +0.69142253 e 1.0010417 Incl. 162.23375 +0.12376273 +0.63084337 From 421 observations 2011 Apr. 5-2012 Mar. 18, mean residual 0".6.
m1 = 12.0 + 5 log d + 10.0 log r